This demonstration page uses our WeatherBlox Daily Observations layout. Learn more.

Left ArrowRight Arrow

41.55636, -103.73856

Hourly Observations for December 10, 2021

Temp ( °F °C ) Dew Point ( °F °C ) Humidity (%) Winds ( mph kmh ) Pressure ( in mb ) Visibility ( mi km ) Precip ( " mm )
12:58 am 00:58 Cloudy 32 0.1 22 -5.8 65 65 SE 22 35 29.70 1006 10 16 0.00 0.00
1:58 am 01:58 Cloudy 31 -0.3 20 -6.4 64 64 SE 18 30 29.70 1006 10 16 0.00 0.00
2:58 am 02:58 Cloudy with Light Snow 31 -0.7 21 -6.1 67 67 NNE 8 13 29.75 1007 10 16 0.00 0.00
3:58 am 03:58 Cloudy with Light Snow 26 -3.3 24 -4.7 90 90 NE 13 20 29.78 1008 10 16 0.00 0.00
4:58 am 04:58 Cloudy with Light Snow 26 -3.4 23 -5 89 89 ENE 8 13 29.81 1009 10 16 0.00 0.00
5:58 am 05:58 Cloudy with Light Snow 26 -3.5 24 -4.7 92 92 E 9 15 29.82 1010 10 16 0.00 0.00
6:58 am 06:58 Cloudy with Light Snow 26 -3.4 24 -4.3 94 94 ENE 6 9 29.83 1010 10 16 0.00 0.00
7:58 am 07:58 Cloudy with Light Snow 27 -3 25 -3.8 94 94 NNE 6 9 29.71 1006 6 10 0.00 0.00
8:58 am 08:58 Cloudy with Light Snow 27 -2.7 26 -3.6 94 94 NE 5 7 29.72 1007 8 13 0.01 0.25
9:58 am 09:58 Cloudy with Light Snow 27 -3 25 -4 93 93 N 7 11 29.74 1007 10 16 0.01 0.25
10:58 am 10:58 Cloudy with Light Snow 26 -3.6 23 -5.2 89 89 N 9 15 29.75 1007 10 16 0.00 0.00
11:58 am 11:58 Cloudy with Light Snow Showers 25 -3.7 23 -5 91 91 N 9 15 29.75 1008 10 16 0.00 0.00
12:58 pm 12:58 Cloudy with Light Snow Showers 26 -3.3 23 -4.8 90 90 N 10 17 29.75 1008 10 16 0.00 0.00
1:56 pm 13:56 Mostly Cloudy with Light Snow Showers 26 -3.1 21 -6 81 81 NW 17 28 29.78 1008 10 16 0.00 0.00
2:56 pm 14:56 Cloudy with Light Snow 26 -3.3 23 -5.2 87 87 NW 18 30 29.81 1009 4 6 0.00 0.00
3:56 pm 15:56 Cloudy with Light Snow 25 -4.1 21 -6 87 87 N 18 30 29.89 1012 3 4 0.00 0.00
4:56 pm 16:56 Mostly Cloudy with Light Snow 23 -5.1 21 -6.3 91 91 NW 14 22 29.96 1015 7 11 0.00 0.00
5:56 pm 17:56 Cloudy with Light Snow 22 -5.4 20 -6.4 93 93 NW 13 20 30.00 1016 4 6 0.00 0.00
6:56 pm 18:56 Mostly Cloudy with Light Snow 22 -5.6 19 -7.3 88 88 NW 14 22 30.05 1018 10 16 0.00 0.00
7:56 pm 19:56 Clear 18 -8 14 -10.2 84 84 W 8 13 30.06 1018 10 16 0.00 0.00
8:56 pm 20:56 Clear 17 -8.4 14 -10.1 88 88 W 12 19 30.07 1018 10 16 0.00 0.00
9:56 pm 21:56 Clear 15 -9.5 10 -12.5 79 79 WNW 9 15 30.09 1019 10 16 0.00 0.00
10:58 pm 22:58 Clear 14 -10.2 6 -14.6 70 70 W 7 11 30.12 1020 10 16 0.00 0.00
11:58 pm 23:58 Clear 14 -10.2 6 -14.5 71 71 WNW 12 19 30.12 1020 10 16 0.00 0.00

Powered by AerisWeather